GW5481 Weather Reports


time (UTC)temp
F
wind
direction
speed
knots
gust
knots
rain 1hr
in
rain 24hr
in
rain mn
in
humidity
%
barometer
mb
20260505041509 51 49 0.0 1.7 0.00 0.00 0.00 57 979.4
20260505040008 51 49 0.0 1.7 0.00 0.00 0.00 57 979.4
20260505034506 51 49 0.0 1.7 0.00 0.00 0.00 55 979.4
20260505033004 51 49 0.9 4.3 0.00 0.00 0.00 54 978.8
20260505031503 52 48 0.9 2.6 0.00 0.00 0.00 54 979.0
20260505030002 52 46 0.0 0.0 0.00 0.00 0.00 56 978.8
20260505024504 53 46 0.9 2.6 0.00 0.00 0.00 53 978.4
20260505023003 54 59 0.0 2.6 0.00 0.00 0.00 50 978.3
20260505021600 54 59 0.0 5.2 0.00 0.00 0.00 48 978.2
20260505020100 54 321 0.0 1.7 0.00 0.00 0.00 48 978.2
20260505014559 55 321 0.0 3.5 0.00 0.00 0.00 48 977.5
20260505013126 55 304 0.9 3.5 0.00 0.00 0.00 47 977.5
20260505011624 56 65 0.9 2.6 0.00 0.00 0.00 46 977.1
20260505010113 57 14 1.7 5.2 0.00 0.00 0.00 44 977.1
20260505004558 58 9 0.9 7.0 0.00 0.00 0.00 43 977.0
20260505003103 59 355 1.7 5.2 0.00 0.00 0.00 41 976.7
20260505001556 61 11 1.7 4.3 0.00 0.00 0.00 36 976.5
20260505000105 61 325 1.7 7.8 0.00 0.00 0.00 35 976.5
20260504234554 62 355 1.7 7.0 0.00 0.00 0.00 34 976.3
20260504233104 63 334 3.5 8.7 0.00 0.00 0.00 32 976.2
20260504231554 64 49 2.6 8.7 0.00 0.00 0.00 31 975.8
20260504224552 66 340 1.7 4.3 0.00 0.00 0.00 26 975.3
20260504223059 66 360 2.6 7.0 0.00 0.00 0.00 27 975.0
20260504221551 67 5 2.6 9.6 0.00 0.00 0.00 26 974.9
20260504220051 68 315 2.6 5.2 0.00 0.00 0.00 23 974.8
20260504214606 70 30 0.9 5.2 0.00 0.00 0.00 23 974.8
20260504213056 69 22 1.7 7.0 0.00 0.00 0.00 24 975.0
20260504211551 67 61 0.0 7.8 0.00 0.00 0.00 25 975.4
20260504210046 67 355 1.7 7.0 0.00 0.00 0.00 25 975.4
20260504204550 68 91 2.6 5.2 0.00 0.00 0.00 25 975.8
20260504203045 69 44 1.7 7.0 0.00 0.00 0.00 24 975.9
20260504201558 68 22 2.6 9.6 0.00 0.00 0.00 25 976.1
20260504200143 67 192 4.3 13.9 0.00 0.00 0.00 24 975.8
20260504194548 68 344 0.0 3.5 0.00 0.00 0.00 23 975.7
20260504193040 69 59 0.0 1.7 0.00 0.00 0.00 22 975.6
20260504191548 70 69 0.9 3.5 0.00 0.00 0.00 20 975.4
20260504190140 71 71 0.0 2.6 0.00 0.00 0.00 20 975.5
20260504184552 71 168 1.7 5.2 0.00 0.00 0.00 20 975.5
20260504183036 73 242 0.9 6.1 0.00 0.00 0.00 19 975.7
20260504181537 74 360 1.7 7.0 0.00 0.00 0.00 19 975.9
20260504180032 73 95 0.9 7.8 0.00 0.00 0.00 20 975.9
20260504174530 73 236 2.6 7.8 0.00 0.00 0.00 21 976.3
20260504173032 73 302 2.6 9.6 0.00 0.00 0.00 21 976.6
20260504171528 73 287 4.3 9.6 0.00 0.00 0.00 21 976.6
20260504081502 47 153 0.0 0.0 0.00 0.00 0.00 46 978.2
20260504044531 58 301 0.0 0.9 0.00 0.00 0.00 31 979.3
20260504043030 59 301 0.9 3.5 0.00 0.00 0.00 31 979.6